Вернуться в каталог

JILIN-1 GAOFEN 03D 55 XING

АктивенНаукаSSO
NORAD 69099·PAYLOAD·🇨🇳 China
Это название спутника еще не подтверждено официальными источниками.

Запущен May 15, 2026 с Jiuquan Satellite Launch Center

Loading…

Ближайшие Пролёты (ближайшие 24 часа)

TLE

СвежийSource: Space-Track

Эпоха: Sep 14, 2026, 13:41 UTC

1 69099U 26106C   26257.57069150  .00005483  00000-0  32188-3 0  9998
2 69099  97.5051 338.0979 0012886 212.5273 147.5165 15.12064988 18482

Отслеживайте JILIN-1 GAOFEN 03D 55 XING в реальном времени с AllMySat

Download on the App Store